"Pseudo-MPEC" for P21vWjp

Created 2022 Aug 17 19:22:16 UT using Find_Orb

Click here for an explanation of pseudo-MPECs

 
 Astrometry: 
     P21vWjp* C2022 08 08R:Nw'=/xYi]xAh9tQf0Q0h.UbO\EyB;Q6j(=a7o@-AstrometryGF52
     P21vWjp  C2022 08 08O2uR_XM@q6o-[HOQy@u(]\?-W:u!iaQo96'UGTq3i?=ts]o!t,t'F52
     P21vWjp  C2022 08 08cNu8Pd'4mq;#5=)C4q3-4-KW[y=Vredacted;[^Vr4uro/@A$CVAF52
     P21vWjp  C2022 08 08/wgqetwj+3jHC%('[!p0Mesm,x6=sqq]n^T42+$H@aMIi/J_sQ$mF52
     P21vWjp  C2022 08 08EeE5\,SU!7/iIomA3bOierRi1L@5?eT!6\-ClbZ!Q*Jy%8;clickF52
     P21vWjp ^C2022 08 08.59790700 38 56.070-07 15 29.62   ~88N7 21.64GVNEOCP568
     P21vWjp ^C2022 08 08.59891700 38 56.107-07 15 25.65   ~88N7 21.41GVNEOCP568
     P21vWjp ^C2022 08 08.59984700 38 56.136-07 15 21.78   ~88N7 21.54GVNEOCP568
     P21vWjp |C2022 08 09gg^R_kAp=bhere_6'nT(^jj(\,b8^Fbfor7LRmAjF[APR]jBe^vG807
     P21vWjp |C2022 08 09vA7$WDAo\A2sG2%;TI;4+\?7@/Z_GV,wQD/Bexplanationw$X6+807
     P21vWjp |C2022 08 09f#0'13vEXVR'j7NxRB(aY?vw0'=gkxx$tww--9CwQLw)ROK4jCmd807

Station data:
(568) Mauna Kea  (N19.826114 W155.472200)  US/Hawaii.  Observers R.
   Wainscoat, R. Weryk. 3.6-m Canada-France-Hawaii Telescope + CCD2.24-m
   University of Hawaii reflector.
(807) Cerro Tololo Observatory, La Serena  (S30.169133 W70.805900)  Chile.
   Observer R. Holmes. 0.61-m f/6.5 astrograph + CCD.
(F52) Pan-STARRS 2, Haleakala  (N20.707382 W156.255910)  US/Hawaii.
   Observers J. Bulger, T. Dukes, T. Lowe, A. Schultz, M. Willman. Measurers
   K. Chambers, S. Chastel, T. de Boer, L. Denneau, J. Fairlamb, H.
   Flewelling, M. Huber, C.-C. Lin, E. Magnier, Y. Ramanjooloo, R. Wainscoat,
   R. Weryk. 1.8-m Ritchey-Chrétien + CCD.

Orbital elements:  P21vWjp
   Perihelion 2022 Jul 30.15385 +/- 1.59 TT =  3:41:32 (JD 2459790.65385)
Epoch 2022 Aug  9.0 TT = JDT 2459800.5   Earth MOID: 0.1819   AutoNEOCP
M   2.20698100 +/- 0.21             (J2000 ecliptic)
n   0.22414653 +/- 0.0265           Peri.  340.56953 +/- 1.8
a   2.68399291 +/- 0.212            Node   335.21141 +/- 0.24
e   0.5587804 +/- 0.035             Incl.   12.38411 +/- 0.45
P   4.40                   H 22.6   G  0.15   U 10.3
q 1.18423021 +/- 0.00594    Q 4.18375561 +/- 0.423
From 11 observations 2022 Aug. 8-9 (22.0 hr); mean residual 0".25
Residuals in arcseconds: 
220808 F52  .02-  .11+    220808 F52  .06-  .02+    220809 807  .51-  .17-    
220808 F52  .03-  .08-    220808 568  .04-  .01-    220809 807  .81+  .28-    
220808 F52  .10+  .09-    220808 568  .03+  .06-    220809 807  .30-  .45+    
220808 F52  .00   .00     220808 568  .03+  .11+    

Ephemerides (geocentric):
Date (UTC) HH   RA             Dec           delta  r     elong  mag " sig PA
---- --------  ------------   ------------  ------ ------ -----  --- --------
2022 08 17 19  00 42 43.017   +02 35 03.93  .25712 1.2044 133.7 21.6  149  10
2022 08 17 20  00 42 43.197   +02 37 36.83  .25716 1.2045 133.7 21.6  150  10
2022 08 17 21  00 42 43.370   +02 40 09.65  .25720 1.2046 133.7 21.6  152  10
2022 08 17 22  00 42 43.535   +02 42 42.37  .25724 1.2047 133.8 21.6  153  10
2022 08 17 23  00 42 43.693   +02 45 14.99  .25728 1.2048 133.8 21.6  154  10
2022 08 18 00  00 42 43.844   +02 47 47.53  .25732 1.2049 133.8 21.6  156  10
2022 08 18 01  00 42 43.987   +02 50 19.98  .25736 1.2050 133.8 21.6  157  10
2022 08 18 02  00 42 44.123   +02 52 52.33  .25740 1.2051 133.9 21.6  158  10
2022 08 18 03  00 42 44.251   +02 55 24.59  .25745 1.2051 133.9 21.6  160  10
2022 08 18 04  00 42 44.372   +02 57 56.76  .25749 1.2052 133.9 21.6  161  10
2022 08 18 05  00 42 44.485   +03 00 28.84  .25753 1.2053 133.9 21.6  163  10
2022 08 18 06  00 42 44.591   +03 03 00.82  .25757 1.2054 134.0 21.6  164  10
2022 08 18 07  00 42 44.690   +03 05 32.71  .25761 1.2055 134.0 21.6  165  10
2022 08 18 08  00 42 44.781   +03 08 04.50  .25765 1.2056 134.0 21.6  167  10
2022 08 18 09  00 42 44.865   +03 10 36.20  .25770 1.2057 134.0 21.6  168  10
2022 08 18 10  00 42 44.941   +03 13 07.81  .25774 1.2058 134.1 21.6  170  10
2022 08 18 11  00 42 45.010   +03 15 39.32  .25778 1.2059 134.1 21.6  171  10
2022 08 18 12  00 42 45.072   +03 18 10.74  .25782 1.2060 134.1 21.6  172  10
2022 08 18 13  00 42 45.126   +03 20 42.06  .25787 1.2061 134.1 21.6  174  10
2022 08 18 14  00 42 45.173   +03 23 13.29  .25791 1.2062 134.1 21.6  175  10
2022 08 18 15  00 42 45.212   +03 25 44.42  .25796 1.2063 134.2 21.6  177  10
2022 08 18 16  00 42 45.244   +03 28 15.46  .25800 1.2063 134.2 21.6  178  10
2022 08 18 17  00 42 45.269   +03 30 46.40  .25804 1.2064 134.2 21.6  179  10
2022 08 18 18  00 42 45.286   +03 33 17.24  .25809 1.2065 134.2 21.6  181  10
2022 08 18 19  00 42 45.296   +03 35 47.99  .25813 1.2066 134.3 21.6  182  10
2022 08 18 20  00 42 45.299   +03 38 18.64  .25818 1.2067 134.3 21.6  184  10
2022 08 18 21  00 42 45.294   +03 40 49.20  .25822 1.2068 134.3 21.6  185  10
2022 08 18 22  00 42 45.282   +03 43 19.65  .25827 1.2069 134.3 21.6  187  10
2022 08 18 23  00 42 45.262   +03 45 50.01  .25831 1.2070 134.4 21.6  188  10
2022 08 19 00  00 42 45.235   +03 48 20.27  .25836 1.2071 134.4 21.6  190  10
2022 08 19 01  00 42 45.201   +03 50 50.43  .25840 1.2072 134.4 21.6  191  10
2022 08 19 02  00 42 45.160   +03 53 20.50  .25845 1.2073 134.4 21.6  193  10
2022 08 19 03  00 42 45.111   +03 55 50.46  .25849 1.2074 134.5 21.6  194  10
2022 08 19 04  00 42 45.055   +03 58 20.33  .25854 1.2075 134.5 21.6  196  10
2022 08 19 05  00 42 44.991   +04 00 50.09  .25859 1.2076 134.5 21.6  197  10
2022 08 19 06  00 42 44.920   +04 03 19.76  .25863 1.2077 134.5 21.6  199  10
2022 08 19 07  00 42 44.842   +04 05 49.33  .25868 1.2078 134.6 21.6  200  10
2022 08 19 08  00 42 44.757   +04 08 18.80  .25873 1.2079 134.6 21.6  202  10
2022 08 19 09  00 42 44.664   +04 10 48.16  .25878 1.2080 134.6 21.6  203  10
2022 08 19 10  00 42 44.564   +04 13 17.43  .25882 1.2080 134.6 21.6  205  10
2022 08 19 11  00 42 44.457   +04 15 46.60  .25887 1.2081 134.7 21.6  206  10
2022 08 19 12  00 42 44.342   +04 18 15.66  .25892 1.2082 134.7 21.6  208  10
2022 08 19 13  00 42 44.220   +04 20 44.63  .25897 1.2083 134.7 21.6  209  10
2022 08 19 14  00 42 44.091   +04 23 13.49  .25902 1.2084 134.7 21.6  211  10
2022 08 19 15  00 42 43.955   +04 25 42.25  .25906 1.2085 134.8 21.6  212  10
2022 08 19 16  00 42 43.811   +04 28 10.91  .25911 1.2086 134.8 21.6  214  10
2022 08 19 17  00 42 43.660   +04 30 39.47  .25916 1.2087 134.8 21.6  215  10
2022 08 19 18  00 42 43.502   +04 33 07.92  .25921 1.2088 134.8 21.6  217  10